Flag for Germany Weather past 2 weeks in Dessau-Rosslau, Saxony-Anhalt, Germany

Now
36 °F

Scattered clouds.


Feels Like: 29 °F
Forecast: 25 / 37 °F
Wind: 8 mph from West

Location: Leipzig-Schkeuditz

Current Time: Feb 1, 2015 at 1:44:03 PM

Latest Report: Feb 1, 2015 at 1:20 PM


Visibility: N/A

Pressure: 29.24 "Hg

Humidity: 81%

Dew point: 30 °F

Location of Dessau-RosslauLocation

Historic Weather in Dessau-Rosslau — Graph

°F

Dessau-Rosslau temperature yesterday

Maximum temperature yesterday: 37 °F (at 3:20 PM)
Minimum temperature yesterday: 28 °F (at 2:50 AM)
Average temperature yesterday: 32 °F

Past Weeks' High & Low Weather Summary

 TemperatureHumidityPressure
High41 °F (Jan 17, 1:20 PM)100% (Jan 17, 7:50 PM)30.30 "Hg (Jan 17, 7:50 PM)
Low27 °F (Jan 18, 6:50 AM)65% (Jan 29, 11:50 AM)28.68 "Hg (Jan 30, 4:20 AM)
Average34 °F93%29.78 "Hg
* Reported Jan 17 12:20 PM — Feb 1 12:50 PM, Dessau-Rosslau, Weather by CustomWeather, © 2014

Note: Actual official high and low records may vary slightly from our data, if they occured in-between our weather recording intervals... More about our weather records

Advertising

Dessau-Rosslau weather history for previous 24 hours

 ConditionsComfort  
Time TempWeatherWind HumidityBarometerVisibility
12:50 PM
Feb 1
36 °FScattered clouds.9 mph81%29.24 "HgN/A
12:20 PM36 °FScattered clouds.10 mph81%29.24 "HgN/A
11:50 AM36 °FPassing clouds.10 mph87%29.24 "HgN/A
11:20 AM34 °FPassing clouds.10 mph87%29.24 "HgN/A
10:50 AM34 °FSunny.9 mph87%29.21 "Hg10 mi
10:20 AM32 °FSunny.8 mph93%29.21 "Hg10 mi
9:50 AM32 °FSunny.6 mph87%29.21 "Hg10 mi
9:20 AM30 °FPassing clouds.7 mph93%29.21 "HgN/A
8:50 AM28 °FPassing clouds.6 mph100%29.18 "HgN/A
8:20 AM27 °FPassing clouds.7 mph100%29.18 "HgN/A
7:50 AM27 °FSunny.7 mph100%29.18 "Hg10 mi
7:20 AM27 °FClear.8 mph100%29.15 "Hg10 mi
6:50 AM27 °FClear.8 mph100%29.15 "Hg10 mi
6:20 AM27 °FClear.8 mph93%29.15 "Hg10 mi
5:50 AM27 °FClear.9 mph93%29.15 "Hg10 mi
5:20 AM28 °FClear.10 mph93%29.12 "Hg10 mi
4:50 AM28 °FClear.9 mph93%29.12 "Hg10 mi
4:20 AM28 °FClear.9 mph93%29.12 "Hg10 mi
3:50 AM30 °FClear.9 mph86%29.12 "Hg10 mi
3:20 AM30 °FClear.8 mph93%29.12 "Hg10 mi
2:50 AM28 °FClear.8 mph93%29.12 "Hg10 mi
2:20 AM28 °FClear.9 mph93%29.12 "Hg10 mi
1:50 AM30 °FClear.9 mph86%29.12 "Hg10 mi
1:20 AM28 °FClear.10 mph93%29.12 "Hg10 mi
12:50 AM28 °FClear.12 mph93%29.12 "Hg10 mi
12:20 AM28 °FClear.8 mph93%29.12 "Hg10 mi
11:50 PM
Jan 31
30 °FClear.10 mph93%29.12 "Hg10 mi
11:20 PM30 °FClear.13 mph93%29.09 "Hg10 mi
10:50 PM30 °FClear.10 mph93%29.09 "Hg10 mi
10:20 PM30 °FClear.10 mph93%29.09 "Hg10 mi
9:50 PM30 °FClear.10 mph93%29.09 "Hg10 mi
9:20 PM30 °FClear.12 mph93%29.09 "Hg10 mi
8:50 PM32 °FClear.10 mph93%29.09 "Hg10 mi
8:20 PM32 °FClear.12 mph93%29.06 "Hg10 mi
7:50 PM34 °FClear.12 mph87%29.06 "Hg10 mi
7:20 PM34 °FClear.13 mph93%29.06 "Hg10 mi
6:50 PM34 °FPassing clouds.14 mph93%29.06 "HgN/A
6:20 PM36 °FClear.13 mph87%29.03 "Hg10 mi
5:50 PM36 °FPassing clouds.13 mph87%29.03 "HgN/A
5:20 PM36 °FClear.15 mph87%29.03 "Hg10 mi
4:20 PM37 °FSunny.16 mph87%29.00 "Hg10 mi
3:50 PM36 °FPartly sunny.18 mph93%28.97 "HgN/A
3:20 PM37 °FPartly sunny.20 mph87%28.97 "HgN/A
2:50 PM36 °FBroken clouds.16 mph93%28.97 "HgN/A
2:20 PM36 °FBroken clouds.18 mph93%28.97 "HgN/A
1:50 PM36 °FBroken clouds.17 mph93%28.94 "HgN/A
1:20 PM34 °FLight snow. Mostly cloudy.9 mph100%28.94 "Hg4 mi
Weather by CustomWeather, © 2014

See weather overviewHow to use our weather pages